When you browse on this site, cookies collect data to enhance your experience and personalize the content and advertising you see.
Visit our Privacy Policy to learn more. By continuing to use the site, you agree to this use of cookies and data.

Hourly Weather Kitzbuhel

Today, 6 July, Monday

Time Temperature Precipitation Wind Pressure Humidity
00:00 +16°C° 0 mm 1 mps 678 mmHg 93%
01:00 +15°C° 0 mm 1 mps 678 mmHg 95%
02:00 +15°C° 0.1 mm 0 mps 678 mmHg 95%
03:00 +15°C° 0.1 mm 0 mps 678 mmHg 95%
04:00 +15°C° 0.1 mm 0 mps 677 mmHg 95%
05:00 +16°C° 0.1 mm 0 mps 677 mmHg 93%
06:00 +17°C° 0.1 mm 0 mps 677 mmHg 92%
07:00 +19°C° 0 mm 0 mps 677 mmHg 88%
08:00 +22°C° 0.1 mm 1 mps 677 mmHg 80%
09:00 +23°C° 0.1 mm 1 mps 678 mmHg 73%
10:00 +24°C° 0.1 mm 2 mps 678 mmHg 65%
11:00 +21°C° 0.5 mm 2 mps 677 mmHg 74%
12:00 +19°C° 0.5 mm 2 mps 677 mmHg 83%
13:00 +17°C° 0.5 mm 3 mps 676 mmHg 92%
14:00 +16°C° 0.9 mm 2 mps 676 mmHg 94%
15:00 +14°C° 0.9 mm 2 mps 676 mmHg 96%
16:00 +13°C° 0.9 mm 2 mps 675 mmHg 98%
17:00 +13°C° 1.5 mm 2 mps 676 mmHg 97%
18:00 +12°C° 1.5 mm 1 mps 676 mmHg 97%
19:00 +12°C° 1.5 mm 1 mps 677 mmHg 97%
20:00 +11°C° 0.5 mm 1 mps 677 mmHg 96%
21:00 +11°C° 0.5 mm 1 mps 678 mmHg 96%
22:00 +11°C° 0.5 mm 1 mps 678 mmHg 96%
23:00 +10°C° 0.1 mm 1 mps 678 mmHg 96%

Tomorrow, 7 July, Tuesday

Time Temperature Precipitation Wind Pressure Humidity
00:00 +10°C° 0.1 mm 1 mps 678 mmHg 96%
01:00 +9°C° 0.1 mm 1 mps 678 mmHg 95%
02:00 +8°C° 0 mm 1 mps 678 mmHg 95%
03:00 +8°C° 0 mm 1 mps 678 mmHg 95%
04:00 +8°C° 0 mm 1 mps 679 mmHg 95%
05:00 +9°C° 0 mm 1 mps 679 mmHg 93%
06:00 +9°C° 0 mm 0 mps 679 mmHg 90%
07:00 +10°C° 0 mm 0 mps 679 mmHg 88%
08:00 +13°C° 0 mm 1 mps 680 mmHg 75%
09:00 +15°C° 0 mm 1 mps 680 mmHg 61%
10:00 +18°C° 0 mm 1 mps 680 mmHg 48%
11:00 +19°C° 0 mm 1 mps 680 mmHg 45%
12:00 +19°C° 0 mm 2 mps 680 mmHg 42%
13:00 +20°C° 0 mm 2 mps 680 mmHg 38%
14:00 +20°C° 0 mm 2 mps 680 mmHg 40%
15:00 +20°C° 0 mm 2 mps 679 mmHg 41%
16:00 +20°C° 0 mm 2 mps 679 mmHg 43%
17:00 +19°C° 0 mm 2 mps 679 mmHg 53%
18:00 +17°C° 0 mm 2 mps 679 mmHg 63%
19:00 +16°C° 0 mm 1 mps 678 mmHg 74%
20:00 +14°C° 0 mm 1 mps 678 mmHg 80%
21:00 +12°C° 0 mm 1 mps 678 mmHg 86%
22:00 +10°C° 0 mm 1 mps 678 mmHg 92%
23:00 +10°C° 0 mm 1 mps 678 mmHg 92%

Day after tomorrow, 8 July, Wednesday

Time Temperature Precipitation Wind Pressure Humidity
00:00 +10°C° 0 mm 1 mps 678 mmHg 92%
01:00 +10°C° 0 mm 1 mps 678 mmHg 92%
02:00 +10°C° 0 mm 1 mps 678 mmHg 91%
03:00 +9°C° 0 mm 1 mps 678 mmHg 91%
04:00 +9°C° 0 mm 1 mps 678 mmHg 90%
05:00 +12°C° 0 mm 1 mps 678 mmHg 83%
06:00 +14°C° 0 mm 1 mps 678 mmHg 76%
07:00 +15°C° 0 mm 0 mps 679 mmHg 68%
08:00 +19°C° 0 mm 1 mps 679 mmHg 61%
09:00 +21°C° 0 mm 1 mps 680 mmHg 53%
10:00 +23°C° 0 mm 1 mps 680 mmHg 46%
11:00 +24°C° 0 mm 2 mps 680 mmHg 43%
12:00 +24°C° 0 mm 2 mps 680 mmHg 41%
13:00 +25°C° 0 mm 2 mps 680 mmHg 39%
14:00 +25°C° 0 mm 2 mps 680 mmHg 42%
15:00 +24°C° 0 mm 2 mps 680 mmHg 44%
16:00 +24°C° 0 mm 3 mps 680 mmHg 47%
17:00 +21°C° 0 mm 2 mps 679 mmHg 57%
18:00 +20°C° 0 mm 2 mps 679 mmHg 68%
19:00 +19°C° 0 mm 1 mps 679 mmHg 78%
20:00 +18°C° 0 mm 1 mps 679 mmHg 83%
21:00 +15°C° 0 mm 1 mps 680 mmHg 88%
22:00 +13°C° 0 mm 1 mps 680 mmHg 93%
23:00 +13°C° 0 mm 1 mps 680 mmHg 93%

9 July, Thursday

Time Temperature Precipitation Wind Pressure Humidity
00:00 +13°C° 0 mm 1 mps 679 mmHg 94%
01:00 +12°C° 0 mm 1 mps 679 mmHg 94%
02:00 +12°C° 0 mm 1 mps 679 mmHg 94%
03:00 +12°C° 0 mm 1 mps 679 mmHg 94%
04:00 +12°C° 0 mm 1 mps 679 mmHg 93%
05:00 +14°C° 0 mm 1 mps 680 mmHg 87%
06:00 +15°C° 0 mm 0 mps 680 mmHg 81%
07:00 +17°C° 0 mm 0 mps 681 mmHg 75%
08:00 +18°C° 0 mm 0 mps 681 mmHg 68%
09:00 +22°C° 0 mm 1 mps 681 mmHg 61%
10:00 +24°C° 0 mm 1 mps 682 mmHg 54%
11:00 +25°C° 0.1 mm 1 mps 682 mmHg 52%
12:00 +25°C° 0.1 mm 1 mps 681 mmHg 50%
13:00 +26°C° 0.1 mm 1 mps 681 mmHg 48%
14:00 +26°C° 0.2 mm 1 mps 681 mmHg 51%
15:00 +26°C° 0.2 mm 1 mps 681 mmHg 53%
16:00 +25°C° 0.2 mm 2 mps 681 mmHg 55%
17:00 +24°C° 0.1 mm 1 mps 680 mmHg 64%
18:00 +23°C° 0.1 mm 1 mps 680 mmHg 73%
19:00 +21°C° 0.1 mm 1 mps 680 mmHg 83%
20:00 +20°C° 0.1 mm 1 mps 680 mmHg 86%
21:00 +18°C° 0.1 mm 1 mps 680 mmHg 89%
22:00 +16°C° 0.1 mm 1 mps 679 mmHg 92%
23:00 +16°C° 0 mm 1 mps 679 mmHg 91%

10 July, Friday

Time Temperature Precipitation Wind Pressure Humidity
00:00 +15°C° 0 mm 1 mps 679 mmHg 91%
01:00 +15°C° 0 mm 2 mps 679 mmHg 90%
02:00 +15°C° 0 mm 1 mps 679 mmHg 89%
03:00 +15°C° 0 mm 1 mps 678 mmHg 88%
04:00 +15°C° 0 mm 1 mps 678 mmHg 87%
05:00 +16°C° 0 mm 1 mps 679 mmHg 83%
06:00 +19°C° 0 mm 1 mps 679 mmHg 78%
07:00 +19°C° 0 mm 0 mps 679 mmHg 73%
08:00 +23°C° 0 mm 1 mps 680 mmHg 64%
09:00 +25°C° 0 mm 1 mps 680 mmHg 55%
10:00 +28°C° 0 mm 1 mps 680 mmHg 45%
11:00 +28°C° 0.2 mm 1 mps 680 mmHg 44%
12:00 +28°C° 0.2 mm 1 mps 680 mmHg 44%
13:00 +28°C° 0.2 mm 1 mps 680 mmHg 43%
14:00 +27°C° 0.4 mm 2 mps 679 mmHg 51%
15:00 +25°C° 0.4 mm 2 mps 679 mmHg 59%
16:00 +24°C° 0.4 mm 2 mps 679 mmHg 68%
17:00 +23°C° 1.5 mm 2 mps 679 mmHg 77%
18:00 +21°C° 1.5 mm 1 mps 679 mmHg 86%
19:00 +20°C° 1.5 mm 1 mps 679 mmHg 95%
20:00 +19°C° 2.3 mm 1 mps 680 mmHg 96%
21:00 +18°C° 2.3 mm 1 mps 680 mmHg 97%
22:00 +16°C° 2.3 mm 1 mps 680 mmHg 98%
23:00 +16°C° 1.2 mm 1 mps 680 mmHg 98%

11 July, Saturday

Time Temperature Precipitation Wind Pressure Humidity
00:00 +16°C° 1.2 mm 1 mps 680 mmHg 98%
01:00 +15°C° 1.2 mm 1 mps 680 mmHg 98%
02:00 +15°C° 0.1 mm 1 mps 680 mmHg 98%
03:00 +14°C° 0.1 mm 1 mps 680 mmHg 98%
04:00 +13°C° 0.1 mm 0 mps 680 mmHg 98%
05:00 +14°C° 0 mm 1 mps 680 mmHg 98%
06:00 +14°C° 0 mm 1 mps 680 mmHg 97%
07:00 +14°C° 0 mm 1 mps 680 mmHg 96%
08:00 +15°C° 0 mm 1 mps 680 mmHg 91%
09:00 +16°C° 0 mm 1 mps 681 mmHg 86%
10:00 +18°C° 0 mm 1 mps 681 mmHg 80%
11:00 +19°C° 0.1 mm 1 mps 681 mmHg 79%
12:00 +19°C° 0.1 mm 1 mps 681 mmHg 77%
13:00 +19°C° 0.1 mm 1 mps 681 mmHg 75%
14:00 +19°C° 0.2 mm 1 mps 680 mmHg 75%
15:00 +20°C° 0.2 mm 1 mps 680 mmHg 76%
16:00 +20°C° 0.2 mm 1 mps 680 mmHg 76%
17:00 +19°C° 0.2 mm 1 mps 680 mmHg 80%
18:00 +19°C° 0.2 mm 1 mps 680 mmHg 84%
19:00 +18°C° 0.2 mm 1 mps 680 mmHg 88%
20:00 +16°C° 0 mm 1 mps 680 mmHg 90%
21:00 +16°C° 0 mm 1 mps 680 mmHg 92%
22:00 +14°C° 0 mm 0 mps 681 mmHg 94%
23:00 +14°C° 0 mm 0 mps 680 mmHg 93%
Show more